Time,TemperatureF,DewpointF,PressureIn,WindDirection,WindDirectionDegrees,WindSpeedMPH,WindSpeedGustMPH,Humidity,HourlyPrecipIn,Conditions,Clouds,dailyrainin,SoftwareType,DateUTC
2013-02-24 00:04:00,34.0,26.3,30.01,SE,135,0.0,5.0,73,0.00,,,-99.99,Weather View 32 v60,2013-02-24 06:04:00,
2013-02-24 00:14:00,34.0,25.9,30.01,SE,135,0.0,5.0,72,0.00,,,-99.99,Weather View 32 v60,2013-02-24 06:14:00,
2013-02-24 00:19:00,34.0,25.9,30.01,SSE,158,0.0,5.0,72,0.00,,,-99.99,Weather View 32 v60,2013-02-24 06:19:00,
2013-02-24 00:25:00,33.0,25.3,30.01,SSW,202,0.0,5.0,73,0.00,,,-99.99,Weather View 32 v60,2013-02-24 06:25:00,
2013-02-24 00:34:00,33.0,25.6,30.00,SE,135,0.0,5.0,74,0.00,,,-99.99,Weather View 32 v60,2013-02-24 06:34:00,
2013-02-24 00:45:00,33.0,25.6,30.01,SSW,202,1.0,5.0,74,0.00,,,-99.99,Weather View 32 v60,2013-02-24 06:45:00,
2013-02-24 00:54:00,33.0,25.6,30.01,SE,135,0.0,4.0,74,0.00,,,-99.99,Weather View 32 v60,2013-02-24 06:54:00,
2013-02-24 00:59:00,33.0,25.6,30.01,SSW,202,0.0,4.0,74,0.00,,,-99.99,Weather View 32 v60,2013-02-24 06:59:00,
2013-02-24 01:04:00,32.0,25.0,30.01,South,180,1.0,3.0,75,0.00,,,-99.99,Weather View 32 v60,2013-02-24 07:04:00,
2013-02-24 01:09:00,32.0,25.0,30.02,SW,225,2.0,3.0,75,0.00,,,-99.99,Weather View 32 v60,2013-02-24 07:09:00,
2013-02-24 01:15:00,32.0,25.0,30.02,SSW,202,1.0,3.0,75,0.00,,,-99.99,Weather View 32 v60,2013-02-24 07:15:00,
2013-02-24 01:24:00,31.0,24.6,30.02,SSW,202,1.0,3.0,77,0.00,,,-99.99,Weather View 32 v60,2013-02-24 07:24:00,
2013-02-24 01:29:00,31.0,24.6,30.02,SW,225,1.0,3.0,77,0.00,,,-99.99,Weather View 32 v60,2013-02-24 07:29:00,
2013-02-24 01:34:00,31.0,24.9,30.02,SSW,202,1.0,3.0,78,0.00,,,-99.99,Weather View 32 v60,2013-02-24 07:34:00,
2013-02-24 01:39:00,31.0,24.9,30.02,South,180,0.0,3.0,78,0.00,,,-99.99,Weather View 32 v60,2013-02-24 07:39:00,
2013-02-24 01:49:00,31.0,24.9,30.02,South,180,0.0,3.0,78,0.00,,,-99.99,Weather View 32 v60,2013-02-24 07:49:00,
2013-02-24 01:54:00,31.0,25.3,30.02,South,180,0.0,3.0,79,0.00,,,-99.99,Weather View 32 v60,2013-02-24 07:54:00,
2013-02-24 02:00:00,31.0,25.3,30.02,South,180,0.0,3.0,79,0.00,,,-99.99,Weather View 32 v60,2013-02-24 08:00:00,
2013-02-24 02:05:00,31.0,24.9,30.02,South,180,0.0,3.0,78,0.00,,,-99.99,Weather View 32 v60,2013-02-24 08:05:00,
2013-02-24 02:14:00,31.0,24.9,30.02,SSW,202,1.0,2.0,78,0.00,,,-99.99,Weather View 32 v60,2013-02-24 08:14:00,
2013-02-24 02:19:00,31.0,24.9,30.02,South,180,1.0,2.0,78,0.00,,,-99.99,Weather View 32 v60,2013-02-24 08:19:00,
2013-02-24 02:24:00,31.0,24.9,30.02,South,180,0.0,2.0,78,0.00,,,-99.99,Weather View 32 v60,2013-02-24 08:24:00,
2013-02-24 02:29:00,31.0,24.9,30.02,SSW,202,1.0,2.0,78,0.00,,,-99.99,Weather View 32 v60,2013-02-24 08:29:00,
2013-02-24 02:34:00,31.0,24.9,30.02,South,180,1.0,2.0,78,0.00,,,-99.99,Weather View 32 v60,2013-02-24 08:34:00,
2013-02-24 02:45:00,31.0,24.9,30.02,South,180,1.0,2.0,78,0.00,,,-99.99,Weather View 32 v60,2013-02-24 08:45:00,
2013-02-24 02:54:00,31.0,24.9,30.02,South,180,0.0,3.0,78,0.00,,,-99.99,Weather View 32 v60,2013-02-24 08:54:00,
2013-02-24 02:59:00,31.0,24.9,30.02,South,180,1.0,3.0,78,0.00,,,-99.99,Weather View 32 v60,2013-02-24 08:59:00,
2013-02-24 03:04:00,31.0,24.9,30.03,South,180,1.0,3.0,78,0.00,,,-99.99,Weather View 32 v60,2013-02-24 09:04:00,
2013-02-24 03:10:00,31.0,24.9,30.03,South,180,1.0,4.0,78,0.00,,,-99.99,Weather View 32 v60,2013-02-24 09:10:00,
2013-02-24 03:15:00,31.0,24.9,30.03,South,180,0.0,4.0,78,0.00,,,-99.99,Weather View 32 v60,2013-02-24 09:15:00,
2013-02-24 03:24:00,30.0,24.0,30.02,South,180,0.0,4.0,78,0.00,,,-99.99,Weather View 32 v60,2013-02-24 09:24:00,
2013-02-24 03:29:00,30.0,24.0,30.02,SE,135,0.0,4.0,78,0.00,,,-99.99,Weather View 32 v60,2013-02-24 09:29:00,
2013-02-24 03:35:00,30.0,24.3,30.03,SE,135,0.0,4.0,79,0.00,,,-99.99,Weather View 32 v60,2013-02-24 09:35:00,
2013-02-24 03:44:00,30.0,24.3,30.03,SSE,158,0.0,4.0,79,0.00,,,-99.99,Weather View 32 v60,2013-02-24 09:44:00,
2013-02-24 03:50:00,30.0,24.3,30.04,SSE,158,0.0,4.0,79,0.00,,,-99.99,Weather View 32 v60,2013-02-24 09:50:00,
2013-02-24 03:54:00,30.0,24.3,30.04,ENE,68,1.0,5.0,79,0.00,,,-99.99,Weather View 32 v60,2013-02-24 09:54:00,
2013-02-24 04:04:00,30.0,24.3,30.03,SE,135,0.0,5.0,79,0.00,,,-99.99,Weather View 32 v60,2013-02-24 10:04:00,
2013-02-24 04:14:00,30.0,24.3,30.04,ESE,112,0.0,5.0,79,0.00,,,-99.99,Weather View 32 v60,2013-02-24 10:14:00,
2013-02-24 04:20:00,30.0,24.3,30.04,NE,45,1.0,5.0,79,0.00,,,-99.99,Weather View 32 v60,2013-02-24 10:20:00,
2013-02-24 04:29:00,30.0,24.3,30.05,SSE,158,0.0,5.0,79,0.00,,,-99.99,Weather View 32 v60,2013-02-24 10:29:00,
2013-02-24 04:34:00,30.0,24.3,30.05,SE,135,0.0,5.0,79,0.00,,,-99.99,Weather View 32 v60,2013-02-24 10:34:00,
2013-02-24 04:39:00,30.0,24.3,30.05,South,180,1.0,5.0,79,0.00,,,-99.99,Weather View 32 v60,2013-02-24 10:39:00,
2013-02-24 04:44:00,30.0,24.3,30.05,East,90,1.0,5.0,79,0.00,,,-99.99,Weather View 32 v60,2013-02-24 10:44:00,
2013-02-24 04:54:00,30.0,24.3,30.06,South,180,0.0,3.0,79,0.00,,,-99.99,Weather View 32 v60,2013-02-24 10:54:00,
2013-02-24 04:59:00,30.0,24.3,30.06,South,180,1.0,3.0,79,0.00,,,-99.99,Weather View 32 v60,2013-02-24 10:59:00,
2013-02-24 05:05:00,29.0,23.3,30.06,South,180,0.0,3.0,79,0.00,,,-99.99,Weather View 32 v60,2013-02-24 11:05:00,
2013-02-24 05:10:00,29.0,23.6,30.07,SSW,202,0.0,3.0,80,0.00,,,-99.99,Weather View 32 v60,2013-02-24 11:10:00,
2013-02-24 05:19:00,29.0,23.9,30.07,SW,225,1.0,3.0,81,0.00,,,-99.99,Weather View 32 v60,2013-02-24 11:19:00,
2013-02-24 05:29:00,29.0,23.9,30.06,West,270,1.0,3.0,81,0.00,,,-99.99,Weather View 32 v60,2013-02-24 11:29:00,
2013-02-24 05:35:00,29.0,23.9,30.07,East,90,0.0,3.0,81,0.00,,,-99.99,Weather View 32 v60,2013-02-24 11:35:00,
2013-02-24 05:39:00,29.0,23.6,30.07,SSE,158,0.0,3.0,80,0.00,,,-99.99,Weather View 32 v60,2013-02-24 11:39:00,
2013-02-24 05:49:00,30.0,24.9,30.07,WNW,292,2.0,3.0,81,0.00,,,-99.99,Weather View 32 v60,2013-02-24 11:49:00,
2013-02-24 05:54:00,30.0,24.6,30.07,WNW,292,3.0,3.0,80,0.00,,,-99.99,Weather View 32 v60,2013-02-24 11:54:00,
2013-02-24 05:59:00,29.0,23.6,30.07,ESE,112,0.0,3.0,80,0.00,,,-99.99,Weather View 32 v60,2013-02-24 11:59:00,
2013-02-24 06:04:00,29.0,23.6,30.07,South,180,1.0,3.0,80,0.00,,,-99.99,Weather View 32 v60,2013-02-24 12:04:00,
2013-02-24 06:14:00,29.0,23.9,30.08,SSE,158,1.0,3.0,81,0.00,,,-99.99,Weather View 32 v60,2013-02-24 12:14:00,
2013-02-24 06:19:00,29.0,23.9,30.08,South,180,1.0,3.0,81,0.00,,,-99.99,Weather View 32 v60,2013-02-24 12:19:00,
2013-02-24 06:25:00,28.0,22.9,30.08,South,180,0.0,3.0,81,0.00,,,-99.99,Weather View 32 v60,2013-02-24 12:25:00,
2013-02-24 06:34:00,28.0,22.9,30.09,SE,135,0.0,3.0,81,0.00,,,-99.99,Weather View 32 v60,2013-02-24 12:34:00,
2013-02-24 06:40:00,28.0,23.2,30.09,East,90,1.0,3.0,82,0.00,,,-99.99,Weather View 32 v60,2013-02-24 12:40:00,
2013-02-24 06:49:00,30.0,25.2,30.09,SSE,158,1.0,3.0,82,0.00,,,-99.99,Weather View 32 v60,2013-02-24 12:49:00,
2013-02-24 06:59:00,31.0,25.9,30.09,SE,135,0.0,3.0,81,0.00,,,-99.99,Weather View 32 v60,2013-02-24 12:59:00,
2013-02-24 07:04:00,32.0,26.5,30.09,NW,315,2.0,3.0,80,0.00,,,-99.99,Weather View 32 v60,2013-02-24 13:04:00,
2013-02-24 07:15:00,34.0,27.9,30.09,SSE,158,0.0,3.0,78,0.00,,,-99.99,Weather View 32 v60,2013-02-24 13:15:00,
2013-02-24 07:24:00,34.0,27.5,30.09,ENE,68,4.0,6.0,77,0.00,,,-99.99,Weather View 32 v60,2013-02-24 13:24:00,
2013-02-24 07:34:00,33.0,26.3,30.09,NE,45,5.0,9.0,76,0.00,,,-99.99,Weather View 32 v60,2013-02-24 13:34:00,
2013-02-24 07:40:00,33.0,26.3,30.09,ENE,68,8.0,10.0,76,0.00,,,-99.99,Weather View 32 v60,2013-02-24 13:40:00,
2013-02-24 07:49:00,33.0,25.9,30.10,NE,45,8.0,11.0,75,0.00,,,-99.99,Weather View 32 v60,2013-02-24 13:49:00,
2013-02-24 07:54:00,33.0,25.9,30.10,NE,45,5.0,11.0,75,0.00,,,-99.99,Weather View 32 v60,2013-02-24 13:54:00,
2013-02-24 08:00:00,33.0,25.6,30.10,East,90,5.0,11.0,74,0.00,,,-99.99,Weather View 32 v60,2013-02-24 14:00:00,
2013-02-24 08:05:00,34.0,26.6,30.11,ENE,68,4.0,11.0,74,0.00,,,-99.99,Weather View 32 v60,2013-02-24 14:05:00,
2013-02-24 08:14:00,34.0,26.3,30.11,East,90,1.0,11.0,73,0.00,,,-99.99,Weather View 32 v60,2013-02-24 14:14:00,
2013-02-24 08:19:00,35.0,26.9,30.12,East,90,5.0,11.0,72,0.00,,,-99.99,Weather View 32 v60,2013-02-24 14:19:00,
2013-02-24 08:24:00,35.0,26.9,30.12,ENE,68,6.0,11.0,72,0.00,,,-99.99,Weather View 32 v60,2013-02-24 14:24:00,
2013-02-24 08:30:00,35.0,26.9,30.12,East,90,5.0,11.0,72,0.00,,,-99.99,Weather View 32 v60,2013-02-24 14:30:00,
2013-02-24 08:39:00,36.0,27.2,30.12,East,90,4.0,11.0,70,0.00,,,-99.99,Weather View 32 v60,2013-02-24 14:39:00,
2013-02-24 08:49:00,36.0,26.8,30.14,ENE,68,1.0,11.0,69,0.00,,,-99.99,Weather View 32 v60,2013-02-24 14:49:00,
2013-02-24 08:55:00,37.0,27.8,30.14,East,90,2.0,10.0,69,0.00,,,-99.99,Weather View 32 v60,2013-02-24 14:55:00,
2013-02-24 08:59:00,39.0,29.0,30.14,ENE,68,5.0,9.0,67,0.00,,,-99.99,Weather View 32 v60,2013-02-24 14:59:00,
2013-02-24 09:04:00,39.0,28.6,30.14,ENE,68,4.0,9.0,66,0.00,,,-99.99,Weather View 32 v60,2013-02-24 15:04:00,
2013-02-24 09:09:00,38.0,27.3,30.14,ENE,68,2.0,9.0,65,0.00,,,-99.99,Weather View 32 v60,2013-02-24 15:09:00,
2013-02-24 09:19:00,38.0,26.9,30.14,NE,45,3.0,9.0,64,0.00,,,-99.99,Weather View 32 v60,2013-02-24 15:19:00,
2013-02-24 09:25:00,39.0,27.8,30.14,NNE,22,5.0,10.0,64,0.00,,,-99.99,Weather View 32 v60,2013-02-24 15:25:00,
2013-02-24 09:29:00,39.0,27.5,30.14,ENE,68,5.0,10.0,63,0.00,,,-99.99,Weather View 32 v60,2013-02-24 15:29:00,
2013-02-24 09:35:00,39.0,27.5,30.14,SE,135,0.0,10.0,63,0.00,,,-99.99,Weather View 32 v60,2013-02-24 15:35:00,
2013-02-24 09:43:00,39.0,27.5,30.14,North,0,1.0,10.0,63,0.00,,,-99.99,Weather View 32 v60,2013-02-24 15:43:00,
2013-02-24 09:49:00,40.0,27.2,30.15,NE,45,3.0,10.0,60,0.00,,,-99.99,Weather View 32 v60,2013-02-24 15:49:00,
2013-02-24 09:59:00,41.0,27.3,30.14,NE,45,6.0,10.0,58,0.00,,,-99.99,Weather View 32 v60,2013-02-24 15:59:00,
2013-02-24 10:04:00,41.0,26.9,30.14,North,0,6.0,10.0,57,0.00,,,-99.99,Weather View 32 v60,2013-02-24 16:04:00,
2013-02-24 10:09:00,41.0,26.5,30.14,ENE,68,5.0,10.0,56,0.00,,,-99.99,Weather View 32 v60,2013-02-24 16:09:00,
2013-02-24 10:15:00,42.0,27.4,30.14,NE,45,3.0,10.0,56,0.00,,,-99.99,Weather View 32 v60,2013-02-24 16:15:00,
2013-02-24 10:24:00,42.0,26.5,30.13,ENE,68,4.0,10.0,54,0.00,,,-99.99,Weather View 32 v60,2013-02-24 16:24:00,
2013-02-24 10:34:00,41.0,25.6,30.13,East,90,6.0,11.0,54,0.00,,,-99.99,Weather View 32 v60,2013-02-24 16:34:00,
2013-02-24 10:40:00,43.0,27.5,30.13,ENE,68,5.0,11.0,54,0.00,,,-99.99,Weather View 32 v60,2013-02-24 16:40:00,
2013-02-24 10:49:00,43.0,27.0,30.13,ENE,68,5.0,11.0,53,0.00,,,-99.99,Weather View 32 v60,2013-02-24 16:49:00,
2013-02-24 10:54:00,43.0,26.6,30.14,East,90,7.0,11.0,52,0.00,,,-99.99,Weather View 32 v60,2013-02-24 16:54:00,
2013-02-24 10:59:00,44.0,27.5,30.14,ENE,68,5.0,11.0,52,0.00,,,-99.99,Weather View 32 v60,2013-02-24 16:59:00,
2013-02-24 11:04:00,44.0,26.5,30.13,ENE,68,9.0,11.0,50,0.00,,,-99.99,Weather View 32 v60,2013-02-24 17:04:00,
2013-02-24 11:10:00,44.0,26.5,30.13,NE,45,2.0,11.0,50,0.00,,,-99.99,Weather View 32 v60,2013-02-24 17:10:00,
2013-02-24 11:19:00,45.0,27.0,30.13,ENE,68,8.0,11.0,49,0.00,,,-99.99,Weather View 32 v60,2013-02-24 17:19:00,
2013-02-24 11:24:00,45.0,26.5,30.12,South,180,2.0,11.0,48,0.00,,,-99.99,Weather View 32 v60,2013-02-24 17:24:00,
2013-02-24 11:30:00,45.0,26.5,30.12,NE,45,3.0,11.0,48,0.00,,,-99.99,Weather View 32 v60,2013-02-24 17:30:00,
2013-02-24 11:39:00,46.0,26.9,30.11,NNW,338,1.0,11.0,47,0.00,,,-99.99,Weather View 32 v60,2013-02-24 17:39:00,
2013-02-24 11:50:00,47.0,27.3,30.11,NNE,22,7.0,11.0,46,0.00,,,-99.99,Weather View 32 v60,2013-02-24 17:50:00,
2013-02-24 11:59:00,47.0,26.2,30.11,SE,135,3.0,11.0,44,0.00,,,-99.99,Weather View 32 v60,2013-02-24 17:59:00,
2013-02-24 12:04:00,48.0,27.1,30.10,NE,45,9.0,11.0,44,0.00,,,-99.99,Weather View 32 v60,2013-02-24 18:04:00,
2013-02-24 12:14:00,47.0,26.2,30.10,ENE,68,6.0,11.0,44,0.00,,,-99.99,Weather View 32 v60,2013-02-24 18:14:00,
2013-02-24 12:19:00,46.0,25.8,30.10,ENE,68,5.0,11.0,45,0.00,,,-99.99,Weather View 32 v60,2013-02-24 18:19:00,
2013-02-24 12:24:00,47.0,26.2,30.10,NE,45,4.0,11.0,44,0.00,,,-99.99,Weather View 32 v60,2013-02-24 18:24:00,
2013-02-24 12:29:00,48.0,27.6,30.10,ENE,68,5.0,11.0,45,0.00,,,-99.99,Weather View 32 v60,2013-02-24 18:29:00,
2013-02-24 12:39:00,48.0,27.1,30.09,ESE,112,4.0,11.0,44,0.00,,,-99.99,Weather View 32 v60,2013-02-24 18:39:00,
2013-02-24 12:44:00,48.0,26.5,30.09,East,90,3.0,11.0,43,0.00,,,-99.99,Weather View 32 v60,2013-02-24 18:44:00,
2013-02-24 12:49:00,49.0,28.0,30.09,ENE,68,2.0,11.0,44,0.00,,,-99.99,Weather View 32 v60,2013-02-24 18:49:00,
2013-02-24 12:59:00,50.0,27.2,30.09,ENE,68,11.0,12.0,41,0.00,,,-99.99,Weather View 32 v60,2013-02-24 18:59:00,
2013-02-24 13:04:00,50.0,27.2,30.09,NE,45,4.0,12.0,41,0.00,,,-99.99,Weather View 32 v60,2013-02-24 19:04:00,
2013-02-24 13:10:00,50.0,27.2,30.09,NNW,338,3.0,12.0,41,0.00,,,-99.99,Weather View 32 v60,2013-02-24 19:10:00,
2013-02-24 13:19:00,50.0,26.6,30.08,NE,45,5.0,12.0,40,0.00,,,-99.99,Weather View 32 v60,2013-02-24 19:19:00,
2013-02-24 13:24:00,50.0,26.6,30.08,East,90,6.0,12.0,40,0.00,,,-99.99,Weather View 32 v60,2013-02-24 19:24:00,
2013-02-24 13:29:00,51.0,27.5,30.08,NNE,22,5.0,12.0,40,0.00,,,-99.99,Weather View 32 v60,2013-02-24 19:29:00,
2013-02-24 13:34:00,51.0,26.9,30.08,NE,45,6.0,12.0,39,0.00,,,-99.99,Weather View 32 v60,2013-02-24 19:34:00,
2013-02-24 13:39:00,52.0,27.1,30.08,NE,45,7.0,12.0,38,0.00,,,-99.99,Weather View 32 v60,2013-02-24 19:39:00,
2013-02-24 13:44:00,51.0,26.2,30.08,ENE,68,8.0,12.0,38,0.00,,,-99.99,Weather View 32 v60,2013-02-24 19:44:00,
2013-02-24 13:54:00,51.0,26.2,30.08,ENE,68,5.0,12.0,38,0.00,,,-99.99,Weather View 32 v60,2013-02-24 19:54:00,
2013-02-24 14:00:00,52.0,26.5,30.08,ENE,68,3.0,12.0,37,0.00,,,-99.99,Weather View 32 v60,2013-02-24 20:00:00,
2013-02-24 14:05:00,51.0,25.6,30.08,NE,45,7.0,11.0,37,0.00,,,-99.99,Weather View 32 v60,2013-02-24 20:05:00,
2013-02-24 14:14:00,51.0,26.2,30.07,ENE,68,9.0,11.0,38,0.00,,,-99.99,Weather View 32 v60,2013-02-24 20:14:00,
2013-02-24 14:24:00,51.0,25.6,30.07,ENE,68,5.0,12.0,37,0.00,,,-99.99,Weather View 32 v60,2013-02-24 20:24:00,
2013-02-24 14:30:00,51.0,25.6,30.07,ENE,68,6.0,12.0,37,0.00,,,-99.99,Weather View 32 v60,2013-02-24 20:30:00,
2013-02-24 14:34:00,51.0,25.6,30.07,ENE,68,10.0,12.0,37,0.00,,,-99.99,Weather View 32 v60,2013-02-24 20:34:00,
2013-02-24 14:44:00,52.0,26.5,30.07,ENE,68,7.0,12.0,37,0.00,,,-99.99,Weather View 32 v60,2013-02-24 20:44:00,
2013-02-24 14:50:00,52.0,26.5,30.06,ENE,68,8.0,12.0,37,0.00,,,-99.99,Weather View 32 v60,2013-02-24 20:50:00,
2013-02-24 14:55:00,52.0,26.5,30.06,SE,135,3.0,12.0,37,0.00,,,-99.99,Weather View 32 v60,2013-02-24 20:55:00,
2013-02-24 15:04:00,52.0,25.8,30.07,ENE,68,7.0,12.0,36,0.00,,,-99.99,Weather View 32 v60,2013-02-24 21:04:00,
2013-02-24 15:14:00,52.0,25.8,30.06,ENE,68,4.0,12.0,36,0.00,,,-99.99,Weather View 32 v60,2013-02-24 21:14:00,
2013-02-24 15:25:00,52.0,25.8,30.06,ENE,68,6.0,12.0,36,0.00,,,-99.99,Weather View 32 v60,2013-02-24 21:25:00,
2013-02-24 15:34:00,53.0,26.7,30.06,NE,45,5.0,12.0,36,0.00,,,-99.99,Weather View 32 v60,2013-02-24 21:34:00,
2013-02-24 15:39:00,53.0,26.7,30.06,East,90,7.0,12.0,36,0.00,,,-99.99,Weather View 32 v60,2013-02-24 21:39:00,
2013-02-24 15:44:00,52.0,26.5,30.06,NNW,338,4.0,10.0,37,0.00,,,-99.99,Weather View 32 v60,2013-02-24 21:44:00,
2013-02-24 15:49:00,52.0,25.8,30.06,ENE,68,6.0,10.0,36,0.00,,,-99.99,Weather View 32 v60,2013-02-24 21:49:00,
2013-02-24 15:54:00,52.0,25.8,30.06,ENE,68,5.0,10.0,36,0.00,,,-99.99,Weather View 32 v60,2013-02-24 21:54:00,
2013-02-24 16:04:00,52.0,26.5,30.06,NE,45,6.0,10.0,37,0.00,,,-99.99,Weather View 32 v60,2013-02-24 22:04:00,
2013-02-24 16:09:00,52.0,26.5,30.06,NE,45,8.0,10.0,37,0.00,,,-99.99,Weather View 32 v60,2013-02-24 22:09:00,
2013-02-24 16:15:00,51.0,25.6,30.06,ENE,68,5.0,10.0,37,0.00,,,-99.99,Weather View 32 v60,2013-02-24 22:15:00,
2013-02-24 16:20:00,51.0,25.6,30.06,NE,45,2.0,10.0,37,0.00,,,-99.99,Weather View 32 v60,2013-02-24 22:20:00,
2013-02-24 16:29:00,51.0,25.6,30.06,East,90,3.0,10.0,37,0.00,,,-99.99,Weather View 32 v60,2013-02-24 22:29:00,
2013-02-24 16:34:00,51.0,25.6,30.06,ENE,68,3.0,10.0,37,0.00,,,-99.99,Weather View 32 v60,2013-02-24 22:34:00,
2013-02-24 16:39:00,51.0,25.6,30.06,ESE,112,2.0,10.0,37,0.00,,,-99.99,Weather View 32 v60,2013-02-24 22:39:00,
2013-02-24 16:45:00,51.0,25.6,30.06,ENE,68,6.0,10.0,37,0.00,,,-99.99,Weather View 32 v60,2013-02-24 22:45:00,
2013-02-24 16:54:00,51.0,25.6,30.06,East,90,4.0,10.0,37,0.00,,,-99.99,Weather View 32 v60,2013-02-24 22:54:00,
2013-02-24 17:00:00,50.0,26.0,30.06,East,90,5.0,10.0,39,0.00,,,-99.99,Weather View 32 v60,2013-02-24 23:00:00,
2013-02-24 17:10:00,50.0,26.0,30.05,NE,45,6.0,10.0,39,0.00,,,-99.99,Weather View 32 v60,2013-02-24 23:10:00,
2013-02-24 17:19:00,50.0,26.6,30.05,East,90,3.0,9.0,40,0.00,,,-99.99,Weather View 32 v60,2013-02-24 23:19:00,
2013-02-24 17:24:00,50.0,26.6,30.05,East,90,3.0,9.0,40,0.00,,,-99.99,Weather View 32 v60,2013-02-24 23:24:00,
2013-02-24 17:30:00,50.0,26.0,30.05,ENE,68,6.0,10.0,39,0.00,,,-99.99,Weather View 32 v60,2013-02-24 23:30:00,
2013-02-24 17:39:00,49.0,25.1,30.05,NE,45,3.0,10.0,39,0.00,,,-99.99,Weather View 32 v60,2013-02-24 23:39:00,
2013-02-24 17:44:00,49.0,25.1,30.05,ENE,68,4.0,10.0,39,0.00,,,-99.99,Weather View 32 v60,2013-02-24 23:44:00,
2013-02-24 17:49:00,49.0,25.1,30.06,ENE,68,5.0,10.0,39,0.00,,,-99.99,Weather View 32 v60,2013-02-24 23:49:00,
2013-02-24 17:55:00,49.0,25.1,30.06,NE,45,3.0,10.0,39,0.00,,,-99.99,Weather View 32 v60,2013-02-24 23:55:00,
2013-02-24 17:59:00,49.0,25.7,30.06,East,90,2.0,10.0,40,0.00,,,-99.99,Weather View 32 v60,2013-02-24 23:59:00,
2013-02-24 18:04:00,48.0,24.2,30.06,NE,45,4.0,10.0,39,0.00,,,-99.99,Weather View 32 v60,2013-02-25 00:04:00,
2013-02-24 18:09:00,48.0,24.8,30.06,SE,135,2.0,10.0,40,0.00,,,-99.99,Weather View 32 v60,2013-02-25 00:09:00,
2013-02-24 18:19:00,47.0,25.1,30.06,East,90,3.0,10.0,42,0.00,,,-99.99,Weather View 32 v60,2013-02-25 00:19:00,
2013-02-24 18:25:00,47.0,25.1,30.07,ENE,68,1.0,10.0,42,0.00,,,-99.99,Weather View 32 v60,2013-02-25 00:25:00,
2013-02-24 18:34:00,46.0,24.7,30.06,East,90,1.0,8.0,43,0.00,,,-99.99,Weather View 32 v60,2013-02-25 00:34:00,
2013-02-24 18:44:00,46.0,26.9,30.06,East,90,1.0,8.0,47,0.00,,,-99.99,Weather View 32 v60,2013-02-25 00:44:00,
2013-02-24 18:49:00,45.0,26.5,30.06,ENE,68,1.0,8.0,48,0.00,,,-99.99,Weather View 32 v60,2013-02-25 00:49:00,
2013-02-24 18:59:00,45.0,26.5,30.06,ENE,68,1.0,6.0,48,0.00,,,-99.99,Weather View 32 v60,2013-02-25 00:59:00,
2013-02-24 19:04:00,44.0,25.5,30.06,ENE,68,3.0,6.0,48,0.00,,,-99.99,Weather View 32 v60,2013-02-25 01:04:00,
2013-02-24 19:09:00,44.0,25.5,30.07,ENE,68,3.0,5.0,48,0.00,,,-99.99,Weather View 32 v60,2013-02-25 01:09:00,
2013-02-24 19:15:00,45.0,26.0,30.06,ENE,68,3.0,4.0,47,0.00,,,-99.99,Weather View 32 v60,2013-02-25 01:15:00,
2013-02-24 19:24:00,44.0,25.5,30.06,ESE,112,1.0,5.0,48,0.00,,,-99.99,Weather View 32 v60,2013-02-25 01:24:00,
2013-02-24 19:34:00,44.0,26.5,30.07,East,90,2.0,5.0,50,0.00,,,-99.99,Weather View 32 v60,2013-02-25 01:34:00,
2013-02-24 19:45:00,44.0,26.5,30.07,ENE,68,1.0,5.0,50,0.00,,,-99.99,Weather View 32 v60,2013-02-25 01:45:00,
2013-02-24 19:54:00,44.0,27.0,30.07,SSE,158,1.0,5.0,51,0.00,,,-99.99,Weather View 32 v60,2013-02-25 01:54:00,
2013-02-24 19:59:00,44.0,27.0,30.07,North,0,1.0,7.0,51,0.00,,,-99.99,Weather View 32 v60,2013-02-25 01:59:00,
2013-02-24 20:04:00,44.0,26.5,30.06,ENE,68,5.0,10.0,50,0.00,,,-99.99,Weather View 32 v60,2013-02-25 02:04:00,
2013-02-24 20:10:00,44.0,26.0,30.06,ENE,68,5.0,10.0,49,0.00,,,-99.99,Weather View 32 v60,2013-02-25 02:10:00,
2013-02-24 20:14:00,45.0,27.0,30.06,ENE,68,3.0,11.0,49,0.00,,,-99.99,Weather View 32 v60,2013-02-25 02:14:00,
2013-02-24 20:19:00,45.0,27.0,30.06,ENE,68,5.0,11.0,49,0.00,,,-99.99,Weather View 32 v60,2013-02-25 02:19:00,
2013-02-24 20:29:00,44.0,26.0,30.06,ENE,68,5.0,11.0,49,0.00,,,-99.99,Weather View 32 v60,2013-02-25 02:29:00,
2013-02-24 20:34:00,44.0,26.0,30.06,ENE,68,10.0,11.0,49,0.00,,,-99.99,Weather View 32 v60,2013-02-25 02:34:00,
2013-02-24 20:39:00,44.0,26.0,30.06,East,90,8.0,11.0,49,0.00,,,-99.99,Weather View 32 v60,2013-02-25 02:39:00,
2013-02-24 20:44:00,44.0,26.0,30.06,ENE,68,6.0,11.0,49,0.00,,,-99.99,Weather View 32 v60,2013-02-25 02:44:00,
2013-02-24 20:54:00,44.0,26.0,30.06,ENE,68,8.0,13.0,49,0.00,,,-99.99,Weather View 32 v60,2013-02-25 02:54:00,
2013-02-24 21:00:00,44.0,26.5,30.06,ENE,68,9.0,13.0,50,0.00,,,-99.99,Weather View 32 v60,2013-02-25 03:00:00,
2013-02-24 21:05:00,44.0,26.5,30.06,ENE,68,8.0,13.0,50,0.00,,,-99.99,Weather View 32 v60,2013-02-25 03:05:00,
2013-02-24 21:14:00,44.0,26.5,30.06,ENE,68,8.0,13.0,50,0.00,,,-99.99,Weather View 32 v60,2013-02-25 03:14:00,
2013-02-24 21:19:00,44.0,26.5,30.05,ENE,68,8.0,13.0,50,0.00,,,-99.99,Weather View 32 v60,2013-02-25 03:19:00,
2013-02-24 21:24:00,44.0,26.5,30.05,NE,45,7.0,14.0,50,0.00,,,-99.99,Weather View 32 v60,2013-02-25 03:24:00,
2013-02-24 21:30:00,44.0,26.5,30.05,ENE,68,6.0,14.0,50,0.00,,,-99.99,Weather View 32 v60,2013-02-25 03:30:00,
2013-02-24 21:35:00,44.0,26.5,30.05,NE,45,5.0,14.0,50,0.00,,,-99.99,Weather View 32 v60,2013-02-25 03:35:00,
2013-02-24 21:44:00,44.0,26.5,30.05,ENE,68,6.0,14.0,50,0.00,,,-99.99,Weather View 32 v60,2013-02-25 03:44:00,
2013-02-24 21:55:00,43.0,25.6,30.05,ENE,68,8.0,14.0,50,0.00,,,-99.99,Weather View 32 v60,2013-02-25 03:55:00,
2013-02-24 21:59:00,43.0,25.6,30.05,NE,45,3.0,14.0,50,0.00,,,-99.99,Weather View 32 v60,2013-02-25 03:59:00,
2013-02-24 22:04:00,43.0,25.6,30.05,East,90,5.0,14.0,50,0.00,,,-99.99,Weather View 32 v60,2013-02-25 04:04:00,
2013-02-24 22:14:00,43.0,25.6,30.04,ENE,68,6.0,14.0,50,0.00,,,-99.99,Weather View 32 v60,2013-02-25 04:14:00,
2013-02-24 22:19:00,43.0,25.6,30.04,East,90,3.0,14.0,50,0.00,,,-99.99,Weather View 32 v60,2013-02-25 04:19:00,
2013-02-24 22:25:00,43.0,25.6,30.04,ENE,68,8.0,13.0,50,0.00,,,-99.99,Weather View 32 v60,2013-02-25 04:25:00,
2013-02-24 22:29:00,42.0,24.7,30.04,NE,45,5.0,13.0,50,0.00,,,-99.99,Weather View 32 v60,2013-02-25 04:29:00,
2013-02-24 22:39:00,42.0,25.2,30.03,NE,45,6.0,13.0,51,0.00,,,-99.99,Weather View 32 v60,2013-02-25 04:39:00,
2013-02-24 22:44:00,42.0,25.6,30.03,East,90,5.0,11.0,52,0.00,,,-99.99,Weather View 32 v60,2013-02-25 04:44:00,
2013-02-24 22:50:00,42.0,25.6,30.03,ENE,68,5.0,11.0,52,0.00,,,-99.99,Weather View 32 v60,2013-02-25 04:50:00,
2013-02-24 22:59:00,42.0,25.2,30.02,NE,45,6.0,11.0,51,0.00,,,-99.99,Weather View 32 v60,2013-02-25 04:59:00,
2013-02-24 23:04:00,42.0,25.6,30.02,ENE,68,4.0,11.0,52,0.00,,,-99.99,Weather View 32 v60,2013-02-25 05:04:00,
2013-02-24 23:09:00,42.0,26.1,30.02,ENE,68,6.0,11.0,53,0.00,,,-99.99,Weather View 32 v60,2013-02-25 05:09:00,
2013-02-24 23:15:00,42.0,26.1,30.01,ENE,68,6.0,11.0,53,0.00,,,-99.99,Weather View 32 v60,2013-02-25 05:15:00,
2013-02-24 23:19:00,41.0,25.2,30.01,ENE,68,6.0,11.0,53,0.00,,,-99.99,Weather View 32 v60,2013-02-25 05:19:00,
2013-02-24 23:29:00,41.0,25.6,30.01,ENE,68,4.0,11.0,54,0.00,,,-99.99,Weather View 32 v60,2013-02-25 05:29:00,
2013-02-24 23:34:00,41.0,25.2,30.01,ENE,68,5.0,11.0,53,0.00,,,-99.99,Weather View 32 v60,2013-02-25 05:34:00,
2013-02-24 23:39:00,41.0,24.7,30.01,East,90,5.0,11.0,52,0.00,,,-99.99,Weather View 32 v60,2013-02-25 05:39:00,
2013-02-24 23:44:00,41.0,24.7,30.01,East,90,7.0,11.0,52,0.00,,,-99.99,Weather View 32 v60,2013-02-25 05:44:00,
2013-02-24 23:50:00,41.0,24.2,30.02,East,90,2.0,11.0,51,0.00,,,-99.99,Weather View 32 v60,2013-02-25 05:50:00,
2013-02-24 23:59:00,41.0,24.7,30.02,ESE,112,3.0,8.0,52,0.00,,,-99.99,Weather View 32 v60,2013-02-25 05:59:00,